Leuchars, United Kingdom

4:34 PM GMT on February 06, 2016 (GMT +0000)
Leuchars

Weather History for 03171 - February, 2013

Change the Weather History Date:

Thursday, February 28, 2013

  Actual Average Record
Temperature  
Mean Temperature 38 °F -  
Max Temperature 50 °F 46 °F - ()
Min Temperature 26 °F 35 °F - ()
Degree Days  
Heating Degree Days 27    
Moisture  
Dew Point 33 °F    
Average Humidity 81    
Maximum Humidity 100    
Minimum Humidity 53    
Precipitation  
Precipitation 0.00 in - - ()
Sea Level Pressure  
Sea Level Pressure 30.54 in    
Wind  
Wind Speed 4 mph ()    
Max Wind Speed 8 mph    
Max Gust Speed -    
Visibility 7.9 miles    
Events Fog    
T = Trace of Precipitation, MM = Missing Value Source: Averaged Metar Reports

Daily Weather History Graph

Daily Weather History Graph

Search for Another Location

Airport or City:

Trip Planner

Search our weather history database for the weather conditions in past years. The results will help you decide how hot, cold, wet, or windy it might be!

Date:

Astronomy

Feb. 28, 2013 Rise Set
Actual Time 7:05 AM GMT 5:43 PM GMT
Civil Twilight 6:28 AM GMT 6:20 PM GMT
Nautical Twilight 5:44 AM GMT 7:04 PM GMT
Astronomical Twilight 5:00 AM GMT 7:48 PM GMT
Moon 9:41 PM GMT (2/28) 7:27 AM GMT (2/28)
Length of Visible Light 11h 52m
Length of Day
10h 37m
Waning Gibbous, 92% of the Moon is Illuminated
Feb 28
Waning Gibbous
Mar 4
Last Quarter
Mar 11
New
Mar 19
First Quarter
Mar 27
Full

Hourly Weather History & Observations

Time (GMT) Temp. Windchill Dew Point Humidity Pressure Visibility Wind Dir Wind Speed Gust Speed Precip Events Conditions
12:50 AM 28.4 °F 24.6 °F 26.6 °F 93% 30.57 in 6.2 mi West 3.5 mph - N/A Fog Shallow Fog
1:50 AM 28.4 °F 23.3 °F 26.6 °F 93% 30.57 in - West 4.6 mph - N/A   Clear
2:50 AM 30 °F - 28 °F 89% 30.57 in 12 mi West 3.5 mph - -  
2:50 AM 30.2 °F 26.7 °F 28.4 °F 93% 30.54 in - West 3.5 mph - N/A   Clear
3:50 AM 26.6 °F 21.2 °F 24.8 °F 93% 30.54 in - WNW 4.6 mph - N/A   Clear
4:50 AM 28.4 °F 23.3 °F 26.6 °F 93% 30.54 in - West 4.6 mph - N/A   Clear
5:50 AM 28 °F - 26 °F 87% 30.55 in 12 mi West 3.5 mph - -   Clear
5:50 AM 28.4 °F 24.6 °F 26.6 °F 93% 30.54 in - West 3.5 mph - N/A   Clear
6:50 AM 28.4 °F - 26.6 °F 93% 30.54 in - North 2.3 mph - N/A   Clear
7:50 AM 32.0 °F 24.8 °F 28.4 °F 87% 30.54 in 6.2 mi West 8.1 mph - N/A   Partly Cloudy
8:50 AM 34 °F - 28 °F 69% 30.57 in 12 mi West 2.3 mph - -   Scattered Clouds
8:50 AM 33.8 °F - 28.4 °F 81% 30.54 in 6.2 mi West 2.3 mph - N/A   Partly Cloudy
9:50 AM 37.4 °F 31.4 °F 33.8 °F 87% 30.54 in 6.2 mi West 8.1 mph - N/A   Partly Cloudy
10:50 AM 42.8 °F 38.6 °F 35.6 °F 76% 30.54 in 6.2 mi West 6.9 mph - N/A   Partly Cloudy
11:50 AM 47 °F - 37 °F 60% 30.55 in 19 mi WSW 4.6 mph - -   Scattered Clouds
11:50 AM 48.2 °F - 37.4 °F 66% 30.54 in 6.2 mi WSW 4.6 mph - N/A   Partly Cloudy
12:50 PM 50.0 °F - 35.6 °F 58% 30.51 in 6.2 mi West 5.8 mph - N/A   Mostly Cloudy
1:50 PM 50.0 °F - 35.6 °F 58% 30.51 in 6.2 mi SW 3.5 mph - N/A   Mostly Cloudy
2:50 PM 50 °F - 38 °F 53% 30.52 in 28 mi West 1.2 mph - -   Mostly Cloudy
2:50 PM 50.0 °F - 37.4 °F 62% 30.51 in 6.2 mi West 1.2 mph - N/A   Mostly Cloudy
3:50 PM 48.2 °F - 39.2 °F 71% 30.51 in 6.2 mi South 1.2 mph - N/A   Mostly Cloudy
4:50 PM 44.6 °F 40.2 °F 39.2 °F 81% 30.51 in 6.2 mi ESE 8.1 mph - N/A   Mostly Cloudy
5:50 PM 42.8 °F 40.1 °F 39.2 °F 87% 30.51 in 6.2 mi SSE 4.6 mph - N/A   Mostly Cloudy
6:50 PM 41.0 °F 39.0 °F 37.4 °F 87% 30.51 in 6.2 mi NW 3.5 mph - N/A   Mostly Cloudy
7:50 PM 39.2 °F - 39.2 °F 100% 30.51 in 6.2 mi NW 2.3 mph - N/A   Mostly Cloudy
8:50 PM 40 °F - 38 °F 91% 30.54 in 16 mi North 3.5 mph - -   Mostly Cloudy
8:50 PM 41.0 °F 39.0 °F 39.2 °F 93% 30.54 in 6.2 mi North 3.5 mph - N/A   Mostly Cloudy
9:50 PM 42.8 °F 39.3 °F 37.4 °F 81% 30.54 in 6.2 mi NNW 5.8 mph - N/A   Mostly Cloudy
10:50 PM 42.8 °F 40.1 °F 35.6 °F 76% 30.54 in 6.2 mi WNW 4.6 mph - N/A   Mostly Cloudy
11:50 PM 41.0 °F 37.1 °F 35.6 °F 81% 30.54 in 6.2 mi North 5.8 mph - N/A   Mostly Cloudy